Wind_Speed
54 55 59 60 59 55 52 51 54 58 56 54 58 60 57 44 33 23 27 27 26 27 31 29 35 37 40 43 45 49 53 55 59 55 54 55 56 54 54 56 57 56 56
58 60 61 60 54 52 53 59 59 56 58 55 57 62 48 31 23 21 17 12 12 15 22 26 33 34 36 41 43 47 50 52 53 53 53 55 59 58 56 50 54 53 52
62 61 60 57 54 57 58 59 60 58 57 58 63 61 42 37 29 27 21 15 10 10 13 17 27 27 33 38 42 45 48 49 51 53 49 50 54 57 55 53 53 52 50
63 59 59 58 59 55 60 61 58 56 57 62 61 52 40 30 32 32 24 22 18 10 11 15 23 24 31 33 38 42 44 44 47 46 48 49 49 51 53 52 53 54 51
64 58 61 58 55 61 61 59 56 58 62 62 59 43 34 28 29 30 29 23 23 18 10 10 18 23 29 31 35 36 37 39 40 45 43 44 43 47 50 50 53 52 50
61 58 59 58 57 60 60 58 57 58 60 63 48 38 27 26 24 27 31 27 22 23 15 10 23 28 28 30 33 32 32 31 29 32 38 43 44 45 48 48 48 51 46
63 57 60 56 60 59 56 60 61 58 58 57 41 31 26 24 22 30 32 27 25 22 20 20 26 28 27 29 27 28 24 18 26 30 28 33 36 37 39 44 47 47 48
63 57 58 61 61 57 52 59 57 58 58 54 37 25 25 21 23 34 41 30 28 13 21 20 23 29 37 35 33 29 29 24 32 34 31 33 34 37 39 36 38 39 40
61 55 59 63 64 60 57 58 57 56 57 42 32 19 24 23 36 45 38 41 29 19 32 32 41 34 32 31 37 34 33 36 34 33 22 33 37 36 34 35 37 41 39
61 58 61 66 67 60 54 56 52 49 44 33 23 20 26 32 42 44 43 46 33 40 52 45 46 40 42 38 43 44 44 38 40 39 30 28 33 43 39 37 36 36 37
62 64 63 57 54 56 51 52 45 40 35 27 19 21 35 41 43 43 41 46 49 58 47 50 48 46 43 46 48 46 42 37 33 31 41 38 36 36 38 40 38 37 37
64 64 53 53 52 49 45 45 41 34 30 24 20 21 42 46 45 48 40 40 34 40 41 46 44 50 48 48 49 43 42 36 35 35 32 41 40 37 38 40 40 35 32
61 55 53 54 52 44 45 41 35 32 28 24 21 25 41 47 46 41 42 35 27 47 46 44 44 50 51 51 52 47 44 42 33 35 33 36 37 41 35 36 39 38 39
57 57 58 52 46 48 44 39 34 31 28 23 22 27 43 48 48 44 48 44 46 49 49 44 35 49 52 52 58 52 48 43 38 40 39 41 38 38 41 39 40 42 37
57 57 57 53 48 46 46 40 35 31 28 23 25 30 45 52 51 53 43 50 56 51 52 46 41 45 55 59 54 51 53 47 46 47 43 39 45 43 43 47 42 39 38
65 65 61 54 49 50 49 42 38 34 29 27 26 32 45 55 54 62 56 49 54 47 55 57 46 46 55 61 57 55 52 50 54 48 43 38 36 43 45 47 48 48 46
64 62 57 55 53 53 49 44 40 38 34 31 26 29 46 58 61 66 66 56 55 40 48 52 52 45 58 64 64 61 54 56 52 59 52 48 45 41 41 46 48 49 46
59 58 58 55 55 54 52 47 44 41 38 34 30 31 46 56 67 67 70 62 53 44 47 47 51 53 58 64 65 58 62 57 52 50 53 53 52 50 47 46 45 47 49
59 61 59 58 57 56 53 48 44 44 43 40 36 33 36 57 68 70 72 70 65 57 44 52 51 55 52 60 63 65 63 58 59 58 53 54 55 54 52 49 49 51 51
61 61 62 61 61 59 56 53 48 48 48 45 40 38 33 48 66 73 73 71 69 53 54 54 57 59 56 54 57 60 59 58 57 63 58 57 57 54 52 50 50 51 50
64 64 64 67 66 62 60 57 55 54 51 51 46 41 40 37 50 67 74 72 67 68 59 57 54 58 64 62 59 62 60 59 59 58 58 53 54 49 51 49 49 52 51
69 68 69 70 72 69 66 62 59 57 56 55 52 48 47 45 43 53 67 77 72 76 65 61 61 60 63 68 69 65 64 66 64 63 61 60 55 55 59 55 53 54 56
74 74 72 72 75 74 70 66 63 60 57 58 59 58 52 50 47 49 61 63 70 73 69 66 65 61 64 66 70 73 74 63 62 62 64 66 60 60 62 60 59 64 63
77 77 78 78 79 81 77 73 69 66 62 62 64 62 58 52 49 50 49 54 59 65 72 73 72 65 61 64 73 70 67 66 62 62 64 67 67 67 67 68 67 69 70
84 81 80 81 84 84 83 81 77 72 68 65 65 65 62 59 56 53 52 52 55 61 61 71 77 77 72 63 71 67 67 71 75 67 69 75 71 70 72 74 73 72 72
93 87 86 83 84 88 88 86 82 80 74 71 68 68 67 65 63 59 58 56 57 57 62 63 70 79 81 76 74 72 73 74 73 78 76 75 73 75 74 71 70 70 77
Wind_Direction
285 288 291 292 295 292 291 296 300 303 302 300 305 302 302 289 285 275 260 247 244 242 235 227 240 233 226 221 222 221 220 222 223 226 226 227 230 232 231 232 233 231 235
287 291 293 293 292 292 293 298 302 299 300 301 301 307 299 281 271 260 233 213 228 218 219 217 238 238 227 222 218 219 221 222 222 225 226 224 229 231 230 231 231 232 235
290 293 291 290 290 294 297 298 301 298 300 300 303 309 296 276 248 253 211 166 163 203 212 222 242 242 228 221 219 220 221 220 222 222 221 224 228 230 230 231 231 231 235
290 290 287 290 294 296 299 299 296 299 297 303 307 308 297 274 255 240 201 165 158 147 190 230 242 234 225 220 216 220 220 221 221 222 220 223 224 226 230 231 233 231 233
288 287 288 290 293 297 297 293 294 298 303 306 311 303 293 267 247 225 200 181 166 148 155 203 242 234 221 217 213 216 218 220 220 222 217 221 221 224 226 229 231 232 234
283 288 287 289 292 295 292 292 297 304 304 308 309 300 275 255 238 221 199 183 156 155 156 190 217 224 213 213 212 211 212 214 217 219 222 221 224 223 226 229 233 233 229
283 283 285 283 293 293 289 294 304 308 307 311 303 291 257 247 222 197 190 179 172 165 161 178 194 207 200 209 209 209 204 201 219 219 221 221 225 225 224 230 234 233 234
279 280 283 283 289 288 291 299 304 307 308 311 299 276 242 243 210 198 182 154 165 147 160 206 222 209 206 208 204 198 186 196 205 211 217 215 211 215 218 221 221 224 225
275 279 282 280 284 288 288 296 302 306 308 302 294 247 232 198 183 178 169 158 129 190 158 215 231 221 201 207 189 191 201 213 197 203 214 211 203 206 211 217 221 224 226
273 275 279 281 281 283 291 296 302 302 298 294 279 225 216 188 185 180 167 161 147 165 184 217 227 216 213 206 199 202 205 212 211 209 205 222 213 212 211 214 220 225 223
269 273 276 277 281 291 292 296 296 292 286 286 260 226 203 192 193 185 177 168 177 185 199 213 222 211 208 198 198 209 209 213 214 217 217 211 217 213 218 220 225 227 228
272 275 271 279 284 284 288 290 287 277 278 279 247 226 200 196 196 188 183 190 187 208 220 221 224 214 202 206 202 206 208 207 214 230 226 224 222 220 221 227 226 230 238
268 271 272 278 280 277 281 278 274 270 269 273 240 220 202 203 197 189 198 191 198 209 217 226 225 212 204 209 202 203 208 204 218 219 228 227 229 229 227 229 237 236 239
271 276 277 275 272 272 270 263 263 262 257 265 238 220 203 207 200 192 183 202 202 194 209 224 224 211 210 206 208 209 209 212 224 222 221 222 225 232 235 226 236 239 243
265 267 269 267 265 262 255 254 254 253 252 258 238 221 204 207 200 192 196 195 200 211 215 223 220 217 211 209 209 212 211 221 219 224 225 219 220 224 228 232 233 237 241
266 267 268 262 255 251 247 248 248 248 248 248 237 222 207 206 203 195 193 202 211 222 226 222 224 220 221 213 214 216 219 219 221 221 221 230 236 233 237 236 236 239 243
264 266 257 251 248 247 245 245 246 246 244 243 238 230 210 208 208 206 204 199 207 227 230 227 228 225 215 213 215 217 217 220 226 225 227 235 238 245 243 242 245 244 244
260 255 255 252 245 244 244 244 244 243 242 241 239 231 217 213 210 211 209 212 216 224 227 227 227 227 217 216 219 221 222 221 223 228 232 238 242 246 247 247 248 246 247
249 252 249 244 242 242 241 241 241 239 242 237 237 230 224 217 217 215 217 220 222 220 230 231 223 227 226 223 223 225 223 227 228 233 235 238 241 243 246 248 249 250 252
239 245 245 240 240 240 237 236 236 234 237 236 234 233 229 225 221 222 219 221 224 223 227 231 227 229 225 223 226 228 228 232 236 233 231 234 237 242 245 250 251 250 251
241 237 242 238 237 237 238 238 235 234 234 237 235 231 233 233 229 228 224 223 226 225 226 229 234 229 230 230 228 229 230 233 234 237 239 242 245 241 243 238 239 243 247
242 239 237 237 237 237 237 238 238 236 235 234 235 234 229 231 229 232 231 230 226 227 229 227 228 229 228 232 235 232 235 239 240 241 243 248 247 246 246 242 246 251 249
239 239 239 238 238 238 239 237 238 238 234 232 231 231 229 227 230 229 234 236 234 232 233 226 230 232 233 233 232 237 242 241 243 244 246 247 250 251 249 250 249 260 264
238 235 238 238 238 236 237 239 238 238 236 233 232 232 231 229 229 232 233 237 237 237 236 234 229 229 234 240 237 239 241 242 244 246 247 249 252 257 258 258 260 262 261
243 237 234 236 239 238 235 235 238 239 236 236 233 233 233 233 232 231 234 234 237 239 238 238 235 233 233 234 235 239 243 245 244 246 251 251 255 254 253 255 262 263 261
243 241 238 234 237 238 237 236 234 237 236 235 235 233 234 235 235 233 231 235 236 236 239 238 237 238 238 238 239 239 241 243 243 247 250 252 250 251 254 254 257 259 259
Height
10806 10804 10803 10801 10800 10797 10794 10793 10791 10788 10785 10781 10776 10771 10764 10760 10757 10755 10753 10754 10757 10761 10764 10767 10769 10771 10776 10782 10790 10796 10803 10809 10816 10822 10828 10833 10837 10840 10845 10849 10853 10857 10861
10795 10794 10792 10791 10791 10789 10785 10782 10782 10779 10775 10770 10766 10760 10756 10752 10751 10750 10749 10749 10752 10754 10758 10763 10765 10767 10771 10776 10783 10789 10795 10801 10807 10815 10819 10824 10829 10834 10839 10844 10848 10851 10855
10785 10784 10781 10781 10781 10780 10776 10773 10772 10769 10764 10759 10754 10750 10745 10744 10745 10746 10746 10745 10748 10753 10755 10759 10760 10764 10768 10772 10777 10783 10788 10794 10800 10806 10813 10818 10822 10829 10834 10839 10842 10846 10849
10775 10775 10771 10770 10770 10768 10765 10763 10761 10758 10755 10749 10742 10737 10735 10733 10735 10739 10744 10743 10744 10749 10752 10757 10759 10761 10764 10768 10773 10778 10783 10788 10794 10800 10806 10812 10817 10823 10828 10832 10836 10840 10844
10764 10765 10761 10759 10758 10757 10754 10752 10751 10748 10745 10739 10732 10728 10726 10725 10727 10733 10740 10741 10740 10741 10749 10755 10757 10759 10763 10766 10770 10774 10779 10784 10789 10795 10801 10807 10812 10818 10823 10826 10830 10836 10839
10752 10754 10749 10749 10749 10747 10744 10742 10740 10737 10734 10729 10722 10720 10718 10720 10723 10730 10735 10735 10734 10738 10745 10752 10757 10758 10760 10764 10767 10771 10776 10780 10785 10790 10796 10802 10807 10812 10817 10820 10825 10829 10833
10741 10744 10739 10738 10739 10738 10734 10733 10730 10728 10724 10720 10715 10711 10711 10715 10719 10726 10729 10731 10734 10737 10741 10749 10754 10757 10759 10763 10767 10769 10774 10779 10783 10788 10793 10798 10803 10807 10811 10815 10818 10823 10826
10730 10734 10729 10727 10729 10729 10725 10724 10722 10719 10715 10711 10709 10706 10707 10712 10715 10719 10724 10728 10735 10738 10744 10748 10750 10752 10756 10758 10762 10767 10773 10775 10780 10784 10791 10795 10799 10804 10807 10810 10813 10816 10818
10718 10724 10721 10717 10718 10720 10718 10716 10713 10710 10706 10704 10702 10701 10702 10707 10710 10712 10717 10724 10729 10740 10741 10740 10743 10751 10751 10756 10759 10764 10768 10772 10777 10781 10788 10791 10794 10797 10800 10804 10806 10809 10812
10708 10714 10712 10707 10707 10710 10710 10707 10704 10701 10698 10697 10696 10696 10698 10703 10708 10712 10716 10719 10726 10732 10729 10737 10739 10745 10748 10752 10756 10759 10763 10768 10774 10778 10782 10785 10788 10791 10796 10800 10802 10806 10808
10699 10701 10700 10697 10697 10698 10701 10698 10696 10694 10691 10691 10691 10691 10694 10699 10704 10710 10714 10717 10721 10724 10724 10726 10732 10740 10743 10748 10750 10752 10759 10765 10770 10772 10777 10780 10784 10788 10792 10795 10798 10801 10804
10686 10689 10687 10687 10688 10687 10691 10690 10689 10687 10685 10685 10685 10685 10688 10693 10698 10708 10713 10716 10719 10722 10720 10724 10728 10734 10739 10742 10745 10749 10754 10760 10765 10767 10772 10776 10780 10783 10787 10791 10794 10796 10800
10673 10674 10674 10676 10678 10678 10681 10681 10682 10681 10679 10679 10680 10681 10683 10688 10694 10702 10708 10710 10712 10714 10713 10718 10724 10728 10734 10736 10741 10745 10750 10753 10758 10763 10767 10771 10775 10779 10783 10787 10790 10792 10794
10659 10660 10661 10664 10666 10668 10670 10673 10674 10674 10674 10673 10674 10676 10678 10682 10689 10697 10703 10704 10704 10706 10709 10713 10718 10723 10728 10731 10736 10740 10746 10750 10754 10757 10762 10768 10772 10776 10778 10782 10784 10785 10787
10644 10646 10649 10652 10654 10657 10659 10663 10665 10666 10667 10667 10667 10669 10673 10676 10683 10689 10695 10698 10698 10701 10705 10707 10713 10719 10722 10726 10731 10735 10741 10745 10750 10753 10758 10762 10764 10768 10771 10775 10777 10779 10782
10630 10632 10637 10640 10642 10644 10648 10653 10656 10658 10660 10660 10661 10662 10666 10670 10676 10680 10684 10691 10696 10698 10701 10703 10707 10713 10718 10721 10726 10732 10736 10741 10744 10748 10751 10755 10758 10762 10766 10768 10771 10773 10775
10615 10620 10622 10625 10629 10633 10637 10643 10647 10649 10652 10653 10654 10655 10659 10663 10668 10674 10676 10678 10683 10687 10690 10694 10700 10706 10711 10715 10719 10725 10729 10733 10736 10742 10745 10747 10751 10754 10758 10761 10763 10766 10768
10603 10604 10608 10612 10616 10622 10625 10632 10637 10641 10643 10646 10646 10648 10651 10655 10661 10665 10669 10672 10674 10678 10682 10688 10693 10698 10704 10708 10713 10717 10722 10725 10729 10733 10737 10741 10744 10747 10750 10753 10755 10758 10761
10587 10590 10594 10598 10603 10608 10614 10620 10626 10630 10633 10637 10638 10641 10642 10647 10651 10656 10660 10664 10669 10673 10677 10681 10686 10690 10695 10700 10705 10710 10714 10718 10721 10725 10729 10733 10735 10738 10741 10745 10748 10750 10753
10568 10575 10578 10583 10589 10594 10600 10606 10613 10617 10621 10626 10630 10632 10635 10637 10641 10645 10650 10655 10660 10665 10670 10672 10679 10684 10687 10691 10695 10700 10705 10709 10713 10716 10719 10722 10725 10729 10732 10735 10738 10740 10744
10553 10558 10561 10567 10572 10579 10584 10591 10597 10603 10609 10615 10620 10623 10625 10626 10629 10634 10639 10645 10650 10656 10661 10666 10670 10674 10678 10681 10685 10689 10693 10697 10701 10705 10707 10710 10714 10717 10721 10724 10726 10729 10732
10533 10540 10544 10550 10556 10561 10568 10575 10582 10588 10595 10602 10608 10612 10615 10617 10618 10621 10628 10634 10639 10646 10651 10656 10660 10664 10669 10672 10675 10680 10684 10688 10690 10694 10697 10700 10704 10707 10710 10713 10716 10719 10721
10514 10521 10529 10535 10539 10545 10552 10559 10565 10572 10581 10587 10592 10596 10601 10605 10610 10613 10617 10622 10627 10633 10640 10645 10649 10655 10658 10661 10664 10668 10673 10676 10680 10684 10686 10690 10693 10697 10700 10703 10704 10708 10710
10493 10501 10508 10515 10519 10525 10536 10542 10549 10555 10563 10570 10576 10583 10589 10596 10600 10603 10606 10609 10613 10620 10625 10632 10636 10642 10646 10649 10652 10655 10660 10664 10668 10671 10674 10677 10681 10684 10686 10690 10692 10694 10696
10470 10479 10487 10495 10499 10507 10514 10522 10530 10539 10546 10554 10562 10569 10576 10581 10586 10591 10594 10597 10601 10605 10610 10615 10622 10627 10631 10635 10639 10643 10646 10651 10655 10658 10661 10664 10667 10671 10674 10675 10677 10680 10682
10444 10454 10463 10472 10477 10485 10494 10503 10511 10518 10529 10536 10544 10553 10559 10566 10571 10576 10581 10585 10587 10593 10596 10600 10606 10611 10616 10620 10623 10628 10632 10636 10640 10644 10648 10651 10653 10655 10659 10661 10663 10665 10667